| time (UTC) | temp F | wind direction | speed knots | gust knots | rain 1hr in | rain 24hr in | rain mn in | humidity % | barometer mb |
| 20260507153348 | 51 | 78 | 2.6 | 0.0 | 0.00 | 0.00 | 0.27 | 78 | 1003.3 |
| 20260507150332 | 49 | 53 | 4.3 | 0.0 | 0.00 | 0.00 | 0.27 | 80 | 1003.5 |
| 20260507143326 | 48 | 36 | 3.5 | 0.0 | 0.00 | 0.00 | 0.27 | 86 | 1003.6 |
| 20260507140330 | 46 | 329 | 2.6 | 0.0 | 0.00 | 0.00 | 0.27 | 64 | 1003.8 |
| 20260507133320 | 44 | 280 | 3.5 | 0.0 | 0.00 | 0.00 | 0.27 | 58 | 1003.9 |
| 20260507130316 | 43 | 291 | 4.3 | 0.0 | 0.00 | 0.00 | 0.27 | 59 | 1003.8 |
| 20260507123325 | 43 | 18 | 3.5 | 0.0 | 0.00 | 0.00 | 0.27 | 59 | 1004.2 |
| 20260507120328 | 42 | 355 | 2.6 | 0.0 | 0.00 | 0.00 | 0.27 | 59 | 1004.4 |
| 20260507113330 | 42 | 23 | 5.2 | 0.0 | 0.00 | 0.00 | 0.27 | 59 | 1003.6 |
| 20260507110329 | 42 | 338 | 4.3 | 0.0 | 0.00 | 0.00 | 0.27 | 59 | 1003.5 |
| 20260507103324 | 42 | 18 | 3.5 | 0.0 | 0.00 | 0.00 | 0.27 | 59 | 1003.6 |
| 20260507100329 | 42 | 9 | 4.3 | 0.0 | 0.00 | 0.00 | 0.27 | 59 | 1003.7 |
| 20260507093331 | 43 | 5 | 5.2 | 0.0 | 0.00 | 0.00 | 0.27 | 58 | 1002.6 |
| 20260507090327 | 44 | 321 | 5.2 | 0.0 | 0.00 | 0.00 | 0.27 | 58 | 1002.8 |
| 20260507083322 | 44 | 339 | 4.3 | 0.0 | 0.00 | 0.00 | 0.26 | 57 | 1002.6 |
| 20260507080338 | 45 | 5 | 5.2 | 0.0 | 0.00 | 0.00 | 0.26 | 57 | 1002.2 |
| 20260507073347 | 45 | 329 | 6.1 | 0.0 | 0.00 | 0.00 | 0.25 | 57 | 1001.7 |
| 20260507070325 | 45 | 14 | 6.1 | 0.0 | 0.00 | 0.00 | 0.23 | 57 | 1002.7 |
| 20260507063323 | 46 | 325 | 7.0 | 0.0 | 0.00 | 0.00 | 0.14 | 56 | 1002.1 |
| 20260507060328 | 48 | 48 | 6.1 | 0.0 | 0.00 | 0.00 | 0.12 | 55 | 1002.0 |
| 20260507053320 | 50 | 265 | 9.6 | 0.0 | 0.00 | 0.00 | 0.10 | 54 | 1001.8 |
| 20260507050332 | 49 | 220 | 11.3 | 0.0 | 0.00 | 0.00 | 0.07 | 54 | 1001.8 |
| 20260507043328 | 49 | 244 | 9.6 | 0.0 | 0.00 | 0.00 | 0.02 | 54 | 1001.9 |
| 20260507040329 | 50 | 222 | 7.8 | 0.0 | 0.00 | 0.00 | 0.52 | 54 | 1002.0 |
| 20260507033334 | 50 | 227 | 7.8 | 0.0 | 0.00 | 0.00 | 0.49 | 54 | 1002.4 |
| 20260507030330 | 50 | 209 | 6.1 | 0.0 | 0.00 | 0.00 | 0.46 | 53 | 1002.7 |
| 20260507023328 | 51 | 175 | 7.0 | 0.0 | 0.00 | 0.00 | 0.40 | 53 | 1003.8 |
| 20260507020327 | 51 | 175 | 9.6 | 0.0 | 0.00 | 0.00 | 0.35 | 53 | 1004.6 |
| 20260507013316 | 51 | 252 | 7.0 | 0.0 | 0.00 | 0.00 | 0.26 | 53 | 1005.0 |
| 20260507010315 | 51 | 235 | 8.7 | 0.0 | 0.00 | 0.00 | 0.19 | 53 | 1005.7 |
| 20260507003326 | 50 | 240 | 7.8 | 0.0 | 0.00 | 0.00 | 0.14 | 54 | 1005.7 |
| 20260507000329 | 51 | 211 | 6.1 | 0.0 | 0.00 | 0.00 | 0.12 | 55 | 1005.5 |
| 20260506233325 | 51 | 166 | 4.3 | 0.0 | 0.00 | 0.00 | 0.10 | 56 | 1005.8 |
| 20260506230337 | 52 | 181 | 6.1 | 0.0 | 0.00 | 0.00 | 0.09 | 59 | 1006.5 |
| 20260506223334 | 52 | 236 | 6.1 | 0.0 | 0.00 | 0.00 | 0.06 | 63 | 1006.3 |
| 20260506220328 | 53 | 219 | 8.7 | 0.0 | 0.00 | 0.00 | 0.04 | 67 | 1006.8 |
| 20260506213317 | 53 | 215 | 8.7 | 0.0 | 0.00 | 0.00 | 0.02 | 75 | 1006.8 |
| 20260506210316 | 54 | 196 | 7.0 | 0.0 | 0.00 | 0.00 | 0.01 | 82 | 1008.0 |
| 20260506203350 | 54 | 275 | 9.6 | 0.0 | 0.00 | 0.00 | 0.01 | 84 | 1007.8 |
| 20260506200327 | 54 | 248 | 6.1 | 0.0 | 0.00 | 0.00 | 0.01 | 84 | 1007.8 |
| 20260506193334 | 56 | 217 | 7.0 | 0.0 | 0.00 | 0.00 | 0.01 | 85 | 1008.0 |
| 20260506190326 | 56 | 238 | 5.2 | 0.0 | 0.00 | 0.00 | 0.01 | 85 | 1007.9 |
| 20260506183324 | 55 | 221 | 6.1 | 0.0 | 0.00 | 0.00 | 0.01 | 83 | 1008.4 |
| 20260506180321 | 55 | 246 | 8.7 | 0.0 | 0.00 | 0.00 | 0.01 | 83 | 1008.8 |
| 20260506173327 | 55 | 208 | 7.8 | 0.0 | 0.00 | 0.00 | 0.01 | 82 | 1008.6 |
| 20260506170323 | 54 | 213 | 7.0 | 0.0 | 0.00 | 0.00 | 0.01 | 82 | 1009.2 |
| 20260506163318 | 54 | 234 | 4.3 | 0.0 | 0.00 | 0.00 | 0.01 | 84 | 1009.2 |
| 20260506160333 | 55 | 224 | 4.3 | 0.0 | 0.00 | 0.00 | 0.01 | 85 | 1009.2 |